Simultaneous Nadir Overpasses (SNOs) Predictions

Prediction of SNOs between GOES-16 and NOAA-20 Satellite Orbit:

Table of predicted SNOs for the next 14.0 days since TLE Epoch: 10/22/2022
Index Date Time (GOES-16) GOES-16 Lat,Lon NOAA-20 Lat,Lon Distance(km) Time Diff (sec)
1 10/22/2022 06:29:40 0.04, -75.19 0.31, -76.50 148.81 80
2 10/23/2022 06:13:35 0.04, -75.20 -0.67, -71.96 368.36 80
3 10/24/2022 18:32:51 -0.03, -75.22 -0.51, -77.27 234.12 80
4 10/25/2022 18:16:47 -0.04, -75.23 0.52, -72.74 283.36 80
5 10/27/2022 06:35:54 0.03, -75.23 0.65, -78.01 316.66 80
6 10/28/2022 06:19:49 0.04, -75.24 -0.33, -73.47 200.67 80
7 10/29/2022 18:39:05 -0.03, -75.26 -0.84, -78.78 401.98 80
8 10/30/2022 18:23:00 -0.03, -75.26 0.20, -74.25 115.49 80
9 11/01/2022 06:44:48 0.02, -75.27 0.97, -79.52 484.02 80
10 11/02/2022 06:26:03 0.02, -75.29 -0.07, -74.99 33.90 80
11 11/04/2022 18:26:34 -0.02, -75.33 -0.10, -75.77 49.04 80
